TimeEST,TemperatureF,Dew PointF,Humidity,Sea Level PressureIn,VisibilityMPH,Wind Direction,Wind SpeedMPH,Gust SpeedMPH,PrecipitationIn,Events,Conditions,WindDirDegrees,DateUTC
12:15 AM,33.8,26.6,75,30.22,10.0,North,4.6,-,N/A,,Clear,360,2012-11-27 05:15:00
12:35 AM,33.8,24.8,70,30.22,10.0,Calm,Calm,-,N/A,,Clear,0,2012-11-27 05:35:00
12:55 AM,33.8,24.8,70,30.21,10.0,ENE,4.6,-,N/A,,Scattered Clouds,70,2012-11-27 05:55:00
1:15 AM,33.8,26.6,75,30.21,10.0,NE,5.8,-,N/A,,Mostly Cloudy,40,2012-11-27 06:15:00
1:35 AM,33.8,26.6,75,30.20,9.0,NNE,8.1,-,N/A,,Partly Cloudy,20,2012-11-27 06:35:00
1:55 AM,33.8,26.6,75,30.21,10.0,NNE,5.8,-,N/A,,Clear,30,2012-11-27 06:55:00
2:15 AM,33.8,26.6,75,30.20,10.0,NE,4.6,-,N/A,,Partly Cloudy,40,2012-11-27 07:15:00
2:35 AM,33.8,26.6,75,30.22,10.0,Calm,Calm,-,N/A,,Clear,0,2012-11-27 07:35:00
2:55 AM,33.8,28.4,81,30.22,10.0,Calm,Calm,-,N/A,,Clear,0,2012-11-27 07:55:00
3:15 AM,33.8,26.6,75,30.22,8.0,Calm,Calm,-,N/A,,Mostly Cloudy,0,2012-11-27 08:15:00
3:35 AM,32.0,28.4,87,30.22,2.5,Calm,Calm,-,N/A,,Overcast,0,2012-11-27 08:35:00
3:55 AM,32.0,28.4,87,30.22,5.0,Calm,Calm,-,N/A,,Overcast,0,2012-11-27 08:55:00
4:15 AM,32.0,28.4,87,30.20,5.0,Calm,Calm,-,N/A,,Overcast,0,2012-11-27 09:15:00
4:35 AM,32.0,28.4,87,30.21,4.0,Calm,Calm,-,N/A,,Overcast,0,2012-11-27 09:35:00
4:55 AM,30.2,28.4,93,30.20,4.0,Calm,Calm,-,N/A,,Overcast,0,2012-11-27 09:55:00
5:15 AM,30.2,28.4,93,30.20,2.0,Calm,Calm,-,N/A,,Overcast,0,2012-11-27 10:15:00
5:35 AM,30.2,28.4,93,30.21,2.0,Calm,Calm,-,N/A,,Overcast,0,2012-11-27 10:35:00
5:55 AM,30.2,28.4,93,30.20,2.5,Calm,Calm,-,N/A,,Overcast,0,2012-11-27 10:55:00
6:15 AM,30.2,28.4,93,30.20,3.0,Calm,Calm,-,N/A,,Overcast,0,2012-11-27 11:15:00
6:35 AM,30.2,28.4,93,30.21,3.0,NNE,3.5,-,N/A,,Overcast,30,2012-11-27 11:35:00
6:55 AM,30.2,28.4,93,30.21,3.0,Calm,Calm,-,N/A,,Mostly Cloudy,0,2012-11-27 11:55:00
7:15 AM,30.2,28.4,93,30.23,3.0,Calm,Calm,-,N/A,,Partly Cloudy,0,2012-11-27 12:15:00
7:35 AM,30.2,28.4,93,30.23,2.0,Calm,Calm,-,N/A,,Clear,0,2012-11-27 12:35:00
7:55 AM,32.0,28.4,87,30.23,1.8,Calm,Calm,-,N/A,,Clear,0,2012-11-27 12:55:00
8:15 AM,30.2,28.4,93,30.26,2.0,Calm,Calm,-,N/A,,Mostly Cloudy,0,2012-11-27 13:15:00
8:35 AM,30.2,28.4,93,30.26,1.0,NW,4.6,-,N/A,,Overcast,320,2012-11-27 13:35:00
8:55 AM,30.2,28.4,93,30.26,2.0,NNW,4.6,-,N/A,,Overcast,330,2012-11-27 13:55:00
9:15 AM,30.2,28.4,93,30.27,2.5,NNW,4.6,-,N/A,,Overcast,340,2012-11-27 14:15:00
9:35 AM,32.0,28.4,87,30.27,2.5,NNW,3.5,-,N/A,,Overcast,330,2012-11-27 14:35:00
9:55 AM,30.2,28.4,93,30.27,2.5,North,5.8,-,N/A,,Overcast,350,2012-11-27 14:55:00
10:15 AM,30.2,28.4,93,30.28,5.0,North,5.8,-,N/A,,Overcast,350,2012-11-27 15:15:00
10:35 AM,32.0,28.4,87,30.28,10.0,NNW,6.9,-,N/A,,Overcast,330,2012-11-27 15:35:00
10:55 AM,32.0,28.4,87,30.28,9.0,North,5.8,-,N/A,,Overcast,10,2012-11-27 15:55:00
11:15 AM,33.8,28.4,81,30.28,10.0,North,3.5,-,N/A,,Overcast,350,2012-11-27 16:15:00
11:35 AM,33.8,28.4,81,30.28,10.0,North,4.6,-,N/A,,Overcast,10,2012-11-27 16:35:00
11:55 AM,33.8,26.6,75,30.28,10.0,NNW,3.5,-,N/A,,Overcast,330,2012-11-27 16:55:00
12:15 PM,35.6,28.4,75,30.27,10.0,NNW,4.6,-,N/A,,Overcast,330,2012-11-27 17:15:00
12:35 PM,33.8,26.6,75,30.26,10.0,NNW,4.6,-,N/A,,Overcast,330,2012-11-27 17:35:00
12:55 PM,35.6,26.6,70,30.26,10.0,Calm,Calm,-,N/A,,Overcast,0,2012-11-27 17:55:00
1:15 PM,35.6,26.6,70,30.26,10.0,North,4.6,-,N/A,,Overcast,360,2012-11-27 18:15:00
1:35 PM,35.6,26.6,70,30.25,10.0,North,5.8,-,N/A,,Overcast,350,2012-11-27 18:35:00
1:55 PM,35.6,26.6,70,30.25,10.0,NW,6.9,-,N/A,,Overcast,320,2012-11-27 18:55:00
2:15 PM,35.6,24.8,65,30.26,10.0,NW,4.6,-,N/A,,Overcast,310,2012-11-27 19:15:00
2:35 PM,35.6,24.8,65,30.25,10.0,NNW,4.6,-,N/A,,Overcast,330,2012-11-27 19:35:00
2:55 PM,35.6,24.8,65,30.25,10.0,NW,3.5,-,N/A,,Overcast,320,2012-11-27 19:55:00
3:15 PM,35.6,24.8,65,30.25,10.0,NW,3.5,-,N/A,,Overcast,310,2012-11-27 20:15:00
3:35 PM,35.6,24.8,65,30.25,10.0,NNW,3.5,-,N/A,,Overcast,340,2012-11-27 20:35:00
3:55 PM,35.6,23.0,60,30.25,10.0,NW,4.6,-,N/A,,Overcast,320,2012-11-27 20:55:00
4:15 PM,33.8,21.2,60,30.24,10.0,WNW,3.5,-,N/A,,Overcast,300,2012-11-27 21:15:00
4:35 PM,33.8,21.2,60,30.24,10.0,North,3.5,-,N/A,,Overcast,360,2012-11-27 21:35:00
4:55 PM,33.8,21.2,60,30.25,10.0,NNW,4.6,-,N/A,,Overcast,340,2012-11-27 21:55:00
5:15 PM,33.8,19.4,56,30.24,10.0,Calm,Calm,-,N/A,,Overcast,0,2012-11-27 22:15:00
5:35 PM,33.8,19.4,56,30.25,10.0,Calm,Calm,-,N/A,,Overcast,0,2012-11-27 22:35:00
5:55 PM,33.8,21.2,60,30.26,10.0,WNW,3.5,-,N/A,,Overcast,300,2012-11-27 22:55:00
6:15 PM,33.8,21.2,60,30.25,10.0,Calm,Calm,-,N/A,,Overcast,0,2012-11-27 23:15:00
6:55 PM,33.8,21.2,60,30.27,10.0,Calm,Calm,-,N/A,,Overcast,0,2012-11-27 23:55:00
7:15 PM,33.8,21.2,60,30.27,10.0,Calm,Calm,-,N/A,,Overcast,0,2012-11-28 00:15:00
7:35 PM,32.0,21.2,64,30.28,10.0,NNW,3.5,-,N/A,,Overcast,330,2012-11-28 00:35:00
7:55 PM,32.0,21.2,64,30.28,10.0,Calm,Calm,-,N/A,,Overcast,0,2012-11-28 00:55:00
8:15 PM,32.0,19.4,60,30.28,10.0,NNW,3.5,-,N/A,,Overcast,340,2012-11-28 01:15:00
8:35 PM,33.8,19.4,56,30.28,10.0,Calm,Calm,-,N/A,,Overcast,0,2012-11-28 01:35:00
8:55 PM,32.0,19.4,60,30.28,10.0,Calm,Calm,-,N/A,,Overcast,0,2012-11-28 01:55:00
9:15 PM,30.2,19.4,64,30.28,10.0,Calm,Calm,-,N/A,,Overcast,0,2012-11-28 02:15:00
9:35 PM,30.2,19.4,64,30.29,10.0,WSW,3.5,-,N/A,,Overcast,250,2012-11-28 02:35:00
9:55 PM,32.0,19.4,60,30.29,10.0,WSW,4.6,-,N/A,,Overcast,240,2012-11-28 02:55:00
10:15 PM,30.2,19.4,64,30.28,10.0,WSW,3.5,-,N/A,,Overcast,250,2012-11-28 03:15:00
10:35 PM,30.2,19.4,64,30.27,10.0,WSW,4.6,-,N/A,,Overcast,250,2012-11-28 03:35:00
10:55 PM,30.2,19.4,64,30.27,10.0,Calm,Calm,-,N/A,,Overcast,0,2012-11-28 03:55:00
11:15 PM,30.2,21.2,69,30.26,10.0,WSW,4.6,-,N/A,,Overcast,250,2012-11-28 04:15:00
11:35 PM,30.2,21.2,69,30.27,10.0,WSW,4.6,-,N/A,,Overcast,250,2012-11-28 04:35:00
11:55 PM,30.2,19.4,64,30.26,10.0,WSW,3.5,-,N/A,,Overcast,250,2012-11-28 04:55:00